EN

Hourly Weather Dzielna

Today, 22 October, Thursday

Time Temperature Precipitation Wind Pressure Humidity
00:00 +10°C° 0 mm 6 mps 738 mmHg 72%
01:00 +10°C° 0 mm 5 mps 738 mmHg 74%
02:00 +11°C° 0 mm 4 mps 738 mmHg 75%
03:00 +11°C° 0 mm 4 mps 738 mmHg 76%
04:00 +11°C° 0 mm 4 mps 738 mmHg 76%
05:00 +11°C° 0 mm 4 mps 739 mmHg 75%
06:00 +11°C° 0 mm 4 mps 739 mmHg 75%
07:00 +11°C° 0 mm 4 mps 739 mmHg 74%
08:00 +13°C° 0 mm 4 mps 740 mmHg 69%
09:00 +14°C° 0 mm 4 mps 740 mmHg 64%
10:00 +17°C° 0 mm 4 mps 740 mmHg 59%
11:00 +18°C° 0 mm 4 mps 740 mmHg 57%
12:00 +19°C° 0 mm 4 mps 740 mmHg 55%
13:00 +20°C° 0 mm 3 mps 740 mmHg 53%
14:00 +19°C° 0 mm 3 mps 740 mmHg 57%
15:00 +18°C° 0 mm 3 mps 740 mmHg 62%
16:00 +17°C° 0 mm 3 mps 739 mmHg 67%
17:00 +16°C° 0 mm 3 mps 740 mmHg 69%
18:00 +14°C° 0 mm 4 mps 740 mmHg 72%
19:00 +13°C° 0 mm 4 mps 740 mmHg 75%
20:00 +12°C° 0 mm 4 mps 740 mmHg 75%
21:00 +12°C° 0 mm 4 mps 740 mmHg 75%
22:00 +12°C° 0 mm 3 mps 740 mmHg 76%
23:00 +11°C° 0 mm 3 mps 740 mmHg 76%

Tomorrow, 23 October, Friday

Time Temperature Precipitation Wind Pressure Humidity
00:00 +11°C° 0 mm 3 mps 740 mmHg 76%
01:00 +11°C° 0 mm 3 mps 740 mmHg 77%
02:00 +11°C° 0 mm 3 mps 739 mmHg 78%
03:00 +11°C° 0 mm 3 mps 739 mmHg 79%
04:00 +10°C° 0 mm 3 mps 738 mmHg 80%
05:00 +10°C° 0 mm 3 mps 738 mmHg 80%
06:00 +10°C° 0 mm 3 mps 738 mmHg 80%
07:00 +10°C° 0 mm 3 mps 738 mmHg 80%
08:00 +11°C° 0 mm 3 mps 738 mmHg 76%
09:00 +13°C° 0 mm 4 mps 738 mmHg 73%
10:00 +14°C° 0 mm 4 mps 738 mmHg 69%
11:00 +16°C° 0 mm 3 mps 738 mmHg 66%
12:00 +17°C° 0 mm 3 mps 737 mmHg 62%
13:00 +18°C° 0 mm 2 mps 737 mmHg 59%
14:00 +18°C° 0 mm 2 mps 737 mmHg 62%
15:00 +17°C° 0 mm 2 mps 737 mmHg 66%
16:00 +16°C° 0 mm 2 mps 737 mmHg 70%
17:00 +16°C° 0 mm 2 mps 737 mmHg 72%
18:00 +15°C° 0 mm 2 mps 736 mmHg 75%
19:00 +13°C° 0 mm 3 mps 736 mmHg 77%
20:00 +13°C° 0 mm 3 mps 736 mmHg 78%
21:00 +13°C° 0 mm 3 mps 736 mmHg 78%
22:00 +13°C° 0 mm 3 mps 736 mmHg 79%
23:00 +13°C° 0 mm 2 mps 736 mmHg 80%

Day after tomorrow, 24 October, Saturday

Time Temperature Precipitation Wind Pressure Humidity
00:00 +13°C° 0 mm 2 mps 736 mmHg 81%
01:00 +13°C° 0 mm 2 mps 736 mmHg 82%
02:00 +13°C° 0.6 mm 2 mps 736 mmHg 85%
03:00 +12°C° 0.6 mm 2 mps 736 mmHg 88%
04:00 +12°C° 0.6 mm 2 mps 735 mmHg 92%
05:00 +11°C° 1.7 mm 3 mps 736 mmHg 93%
06:00 +11°C° 1.7 mm 3 mps 736 mmHg 94%
07:00 +11°C° 1.7 mm 3 mps 736 mmHg 95%
08:00 +12°C° 0.1 mm 4 mps 736 mmHg 94%
09:00 +12°C° 0.1 mm 4 mps 737 mmHg 92%
10:00 +13°C° 0.1 mm 4 mps 737 mmHg 91%
11:00 +14°C° 0 mm 4 mps 738 mmHg 85%
12:00 +14°C° 0 mm 5 mps 738 mmHg 79%
13:00 +15°C° 0 mm 5 mps 738 mmHg 72%
14:00 +15°C° 0 mm 4 mps 739 mmHg 74%
15:00 +14°C° 0 mm 3 mps 739 mmHg 75%
16:00 +15°C° 0 mm 2 mps 739 mmHg 77%
17:00 +14°C° 0 mm 2 mps 739 mmHg 80%
18:00 +13°C° 0 mm 2 mps 740 mmHg 83%
19:00 +12°C° 0 mm 2 mps 740 mmHg 86%
20:00 +12°C° 0 mm 1 mps 740 mmHg 87%
21:00 +11°C° 0 mm 1 mps 741 mmHg 88%
22:00 +11°C° 0 mm 1 mps 741 mmHg 89%
23:00 +11°C° 0 mm 1 mps 741 mmHg 89%

, 25 October, Sunday

Time Temperature Precipitation Wind Pressure Humidity
00:00 +11°C° 0 mm 1 mps 740 mmHg 89%
01:00 +11°C° 0 mm 1 mps 740 mmHg 90%
02:00 +9°C° 0 mm 2 mps 740 mmHg 90%
03:00 +9°C° 0 mm 2 mps 740 mmHg 91%
04:00 +9°C° 0 mm 2 mps 740 mmHg 92%
05:00 +9°C° 0 mm 2 mps 740 mmHg 92%
06:00 +9°C° 0 mm 2 mps 740 mmHg 93%
07:00 +9°C° 0 mm 2 mps 740 mmHg 93%
08:00 +10°C° 0 mm 3 mps 740 mmHg 87%
09:00 +12°C° 0 mm 3 mps 740 mmHg 80%
10:00 +13°C° 0 mm 3 mps 740 mmHg 73%
11:00 +14°C° 0 mm 3 mps 740 mmHg 69%
12:00 +16°C° 0 mm 3 mps 740 mmHg 65%
13:00 +17°C° 0 mm 3 mps 739 mmHg 61%
14:00 +16°C° 0 mm 3 mps 739 mmHg 63%
15:00 +14°C° 0 mm 3 mps 739 mmHg 66%
16:00 +15°C° 0 mm 2 mps 738 mmHg 69%
17:00 +13°C° 0 mm 3 mps 738 mmHg 72%
18:00 +12°C° 0 mm 3 mps 738 mmHg 75%
19:00 +11°C° 0 mm 3 mps 738 mmHg 78%
20:00 +11°C° 0 mm 3 mps 738 mmHg 80%
21:00 +11°C° 0 mm 3 mps 738 mmHg 82%
22:00 +10°C° 0 mm 3 mps 738 mmHg 83%
23:00 +10°C° 0 mm 3 mps 737 mmHg 85%

25 October, Sunday

Time Temperature Precipitation Wind Pressure Humidity
00:00 +11°C° 0 mm 1 mps 740 mmHg 89%
01:00 +11°C° 0 mm 1 mps 740 mmHg 90%
02:00 +9°C° 0 mm 2 mps 740 mmHg 90%
03:00 +9°C° 0 mm 2 mps 740 mmHg 91%
04:00 +9°C° 0 mm 2 mps 740 mmHg 92%
05:00 +9°C° 0 mm 2 mps 740 mmHg 92%
06:00 +9°C° 0 mm 2 mps 740 mmHg 93%
07:00 +9°C° 0 mm 2 mps 740 mmHg 93%
08:00 +10°C° 0 mm 3 mps 740 mmHg 87%
09:00 +12°C° 0 mm 3 mps 740 mmHg 80%
10:00 +13°C° 0 mm 3 mps 740 mmHg 73%
11:00 +14°C° 0 mm 3 mps 740 mmHg 69%
12:00 +16°C° 0 mm 3 mps 740 mmHg 65%
13:00 +17°C° 0 mm 3 mps 739 mmHg 61%
14:00 +16°C° 0 mm 3 mps 739 mmHg 63%
15:00 +14°C° 0 mm 3 mps 739 mmHg 66%
16:00 +15°C° 0 mm 2 mps 738 mmHg 69%
17:00 +13°C° 0 mm 3 mps 738 mmHg 72%
18:00 +12°C° 0 mm 3 mps 738 mmHg 75%
19:00 +11°C° 0 mm 3 mps 738 mmHg 78%
20:00 +11°C° 0 mm 3 mps 738 mmHg 80%
21:00 +11°C° 0 mm 3 mps 738 mmHg 82%
22:00 +10°C° 0 mm 3 mps 738 mmHg 83%
23:00 +10°C° 0 mm 3 mps 737 mmHg 85%

26 October, Monday

Time Temperature Precipitation Wind Pressure Humidity
00:00 +9°C° 0 mm 2 mps 737 mmHg 86%
01:00 +9°C° 0 mm 2 mps 737 mmHg 87%
02:00 +9°C° 0 mm 2 mps 736 mmHg 88%
03:00 +9°C° 0 mm 2 mps 736 mmHg 88%
04:00 +8°C° 0 mm 2 mps 736 mmHg 89%
05:00 +8°C° 0 mm 2 mps 735 mmHg 89%
06:00 +8°C° 0 mm 2 mps 735 mmHg 90%
07:00 +8°C° 0 mm 2 mps 735 mmHg 90%
08:00 +10°C° 0 mm 2 mps 734 mmHg 82%
09:00 +11°C° 0 mm 3 mps 734 mmHg 75%
10:00 +13°C° 0 mm 3 mps 734 mmHg 67%
11:00 +14°C° 0 mm 3 mps 734 mmHg 63%
12:00 +16°C° 0 mm 3 mps 733 mmHg 59%
13:00 +17°C° 0 mm 3 mps 733 mmHg 55%
14:00 +16°C° 0 mm 3 mps 733 mmHg 60%
15:00 +15°C° 0 mm 2 mps 732 mmHg 65%
16:00 +15°C° 0 mm 2 mps 732 mmHg 69%
17:00 +14°C° 0 mm 2 mps 732 mmHg 72%
18:00 +14°C° 0 mm 2 mps 732 mmHg 74%
19:00 +13°C° 0 mm 2 mps 732 mmHg 77%
20:00 +13°C° 0 mm 2 mps 732 mmHg 77%
21:00 +12°C° 0 mm 3 mps 732 mmHg 78%
22:00 +11°C° 0 mm 3 mps 732 mmHg 78%
23:00 +12°C° 0.2 mm 3 mps 732 mmHg 78%

27 October, Tuesday

Time Temperature Precipitation Wind Pressure Humidity
00:00 +12°C° 0.2 mm 4 mps 732 mmHg 77%
01:00 +12°C° 0.2 mm 4 mps 732 mmHg 76%
02:00 +12°C° 0 mm 4 mps 732 mmHg 77%
03:00 +11°C° 0 mm 3 mps 732 mmHg 79%
04:00 +11°C° 0 mm 3 mps 732 mmHg 81%
05:00 +10°C° 0 mm 3 mps 733 mmHg 82%
06:00 +10°C° 0 mm 3 mps 733 mmHg 83%
07:00 +10°C° 0 mm 3 mps 733 mmHg 84%
08:00 +12°C° 0 mm 3 mps 734 mmHg 78%
09:00 +13°C° 0 mm 3 mps 734 mmHg 73%
10:00 +16°C° 0 mm 3 mps 734 mmHg 67%
11:00 +17°C° 0 mm 3 mps 734 mmHg 64%
12:00 +18°C° 0 mm 3 mps 735 mmHg 61%
13:00 +18°C° 0 mm 3 mps 735 mmHg 58%
14:00 +18°C° 0 mm 3 mps 735 mmHg 61%
15:00 +17°C° 0 mm 2 mps 735 mmHg 65%
16:00 +16°C° 0 mm 1 mps 735 mmHg 68%
17:00 +16°C° 0 mm 1 mps 735 mmHg 71%
18:00 +15°C° 0 mm 1 mps 735 mmHg 73%
19:00 +14°C° 0 mm 2 mps 735 mmHg 75%
20:00 +14°C° 0 mm 1 mps 736 mmHg 77%
21:00 +13°C° 0 mm 1 mps 736 mmHg 78%
22:00 +13°C° 0 mm 1 mps 736 mmHg 80%
23:00 +13°C° 0 mm 1 mps 736 mmHg 82%
Show more